Temperature
3 3 3 3 3 3 3 3 3 3 3 3 3 4 4 4 4 4 4 4 4 4 4 4 4 4 5 4 4 4 4 4 4 4 4 4 4 5
3 3 3 3 3 3 3 3 3 2 2 3 3 3 3 3 3 3 4 4 4 4 4 4 4 4 4 4 4 4 4 4 4 4 4 4 4 4
3 3 3 3 3 3 3 3 2 2 2 2 3 3 3 3 3 3 3 4 4 3 3 3 3 3 3 3 3 3 3 3 3 3 3 3 4 4
2 2 2 2 2 2 2 2 2 2 2 2 2 3 3 3 3 3 3 3 3 3 3 3 3 3 3 3 3 3 3 3 3 3 3 3 3 3
2 2 2 2 2 2 2 2 2 2 2 2 2 2 2 2 2 2 2 2 2 2 2 2 2 2 2 2 2 2 2 2 2 2 3 2 2 3
1 1 1 1 1 1 1 2 2 2 2 2 1 1 1 1 1 1 2 2 2 2 2 2 2 2 2 2 2 2 2 2 2 2 2 2 2 2
1 1 1 1 1 1 1 1 1 1 1 1 1 1 1 1 1 0 0 1 1 1 1 1 1 2 2 1 1 1 1 1 1 2 2 2 2 2
0 0 0 0 0 0 0 1 1 1 1 1 1 0 0 0 -0 0 -0 -0 -0 0 1 1 1 1 1 1 1 1 1 1 1 1 1 2 2 2
-0 -0 -0 -0 -0 -0 0 0 0 0 0 0 0 -0 -0 -0 -0 -0 -0 -0 -0 -0 -0 0 1 0 1 1 1 1 1 1 1 1 1 1 1 1
-0 -0 -0 -0 -1 -1 -0 -0 -0 0 0 0 -0 -0 -0 -0 -0 -0 -0 -1 -1 -1 -1 -1 -0 -0 0 0 0 0 0 0 0 1 1 1 1 1
-1 -1 -1 -1 -1 -1 -1 -1 -1 -0 -0 -0 -0 -0 -1 -1 -1 -1 -1 -1 -1 -1 -1 -1 -1 -1 -0 -0 -0 -0 -0 -0 0 0 1 1 1 1
-1 -1 -1 -1 -1 -1 -1 -1 -1 -1 -0 -0 -1 -1 -1 -1 -1 -1 -1 -1 -2 -2 -2 -2 -2 -2 -2 -1 -1 -1 -0 -0 0 0 0 0 0 0
-1 -1 -1 -1 -1 -1 -1 -1 -1 -1 -1 -1 -1 -1 -1 -1 -1 -1 -2 -2 -2 -2 -2 -2 -2 -2 -2 -2 -1 -1 -1 -0 -0 -0 0 0 0 0
-2 -2 -2 -2 -2 -2 -2 -2 -1 -1 -1 -1 -2 -2 -2 -2 -2 -2 -2 -2 -2 -2 -2 -2 -2 -2 -2 -2 -2 -1 -1 -1 -1 -1 -0 -0 0 0
-2 -2 -2 -2 -2 -2 -2 -2 -2 -2 -2 -2 -2 -2 -2 -2 -2 -2 -2 -2 -2 -2 -2 -2 -2 -2 -2 -2 -2 -2 -2 -1 -1 -1 -1 -1 -0 -0
-2 -2 -2 -2 -2 -2 -2 -2 -2 -2 -2 -2 -2 -3 -3 -3 -2 -3 -3 -3 -2 -2 -2 -2 -3 -2 -2 -2 -2 -2 -2 -2 -2 -2 -1 -1 -1 -1
-3 -3 -2 -3 -3 -3 -3 -3 -3 -3 -3 -3 -3 -3 -3 -3 -3 -3 -3 -3 -3 -3 -3 -3 -3 -3 -3 -3 -2 -2 -2 -2 -2 -2 -2 -1 -1 -1
-3 -3 -3 -3 -3 -3 -3 -3 -3 -3 -3 -3 -3 -3 -3 -3 -3 -4 -4 -4 -4 -3 -3 -3 -3 -3 -3 -3 -3 -3 -3 -2 -2 -2 -2 -2 -2 -1
-3 -3 -3 -3 -3 -3 -3 -3 -3 -3 -4 -4 -4 -4 -4 -4 -4 -4 -4 -4 -4 -4 -4 -4 -4 -4 -4 -4 -3 -3 -3 -3 -3 -2 -2 -2 -2 -2
-4 -4 -4 -4 -4 -4 -4 -4 -4 -4 -4 -4 -4 -4 -4 -4 -4 -4 -4 -5 -5 -4 -4 -4 -4 -4 -4 -4 -4 -3 -3 -3 -3 -3 -2 -2 -2 -2
-4 -4 -4 -4 -4 -4 -4 -4 -4 -4 -4 -4 -4 -4 -4 -4 -5 -5 -5 -5 -5 -5 -5 -4 -4 -4 -4 -4 -4 -3 -3 -3 -3 -3 -3 -3 -2 -2
-5 -5 -5 -5 -5 -5 -5 -5 -5 -5 -5 -5 -5 -5 -5 -5 -5 -5 -5 -5 -5 -5 -5 -5 -4 -4 -4 -4 -4 -4 -4 -3 -3 -3 -3 -3 -3 -3
-5 -5 -5 -5 -5 -5 -5 -5 -5 -5 -5 -5 -5 -5 -5 -5 -5 -5 -5 -5 -5 -5 -5 -5 -5 -5 -5 -5 -5 -4 -4 -4 -3 -3 -3 -3 -3 -3
Wind_Speed
4 4 4 4 3 3 3 3 3 3 4 2 1 2 2 3 4 4 5 6 8 8 7 7 7 8 8 8 8 8 8 8 8 9 10 10 11 9
3 3 4 3 3 3 3 3 3 4 4 2 2 2 2 3 4 4 4 7 7 6 6 7 6 7 7 7 7 7 8 8 8 8 9 10 11 9
3 3 4 3 3 2 2 2 3 3 4 3 2 2 1 1 3 3 4 4 4 5 6 6 6 7 7 7 7 7 8 8 8 8 9 9 10 9
3 2 3 2 2 2 2 3 3 3 4 4 3 2 2 2 2 2 3 4 3 4 6 6 6 6 6 6 7 7 7 8 8 8 8 8 9 9
3 2 2 2 2 2 2 3 3 3 3 3 2 1 1 1 2 3 3 3 4 5 6 6 6 7 7 7 7 7 7 7 8 8 7 8 8 8
2 2 2 2 2 2 2 2 2 1 1 1 1 1 1 1 2 2 4 4 4 4 5 6 7 8 7 7 7 7 7 8 9 8 7 7 8 7
2 2 2 2 2 1 1 1 1 1 1 1 0 1 1 1 2 2 3 4 4 2 3 5 5 4 6 7 7 7 7 8 8 9 8 7 6 6
2 1 2 2 1 2 2 2 2 1 1 1 1 1 1 1 1 2 2 3 3 2 4 5 4 3 4 5 7 7 8 8 9 10 9 7 6 6
2 1 1 1 1 0 1 3 3 3 2 1 1 2 1 1 0 1 2 3 3 3 3 4 3 4 5 6 8 7 8 9 10 10 10 7 6 6
2 2 2 1 1 1 1 1 1 2 2 1 0 1 1 0 1 1 1 2 3 2 2 2 3 3 5 5 7 8 8 9 10 11 10 7 6 6
1 2 1 2 2 1 2 1 1 2 4 5 5 4 3 3 2 2 1 2 2 3 2 1 2 3 3 3 6 8 9 10 10 11 10 8 7 6
1 1 2 1 1 2 2 2 0 1 2 4 5 5 4 3 4 1 1 0 1 2 2 2 2 3 3 2 4 6 7 9 10 11 11 9 7 4
1 1 2 1 1 2 2 1 1 2 2 2 2 3 3 3 3 3 2 1 1 2 2 2 2 2 2 3 4 4 5 5 6 8 10 10 8 5
2 2 2 2 2 2 1 1 2 3 2 2 2 2 2 3 3 4 4 3 2 2 3 2 1 2 2 3 3 4 4 5 5 5 7 9 9 8
1 1 1 3 3 2 2 2 3 2 2 2 1 2 2 2 2 3 4 5 5 4 4 3 2 2 2 2 2 3 3 4 4 4 5 5 5 5
1 2 3 4 4 3 2 2 2 1 2 1 1 1 1 2 2 2 3 3 4 4 6 6 4 3 2 2 2 2 3 3 4 5 5 5 5 5
3 2 2 2 2 2 2 1 1 1 2 1 1 1 2 2 2 3 2 3 2 2 4 5 6 5 3 2 2 2 3 3 4 4 4 4 5 5
3 2 2 1 1 1 1 1 1 1 1 1 1 1 1 2 2 2 2 2 2 2 3 3 4 4 4 3 3 2 3 3 4 4 3 3 4 5
2 2 2 1 1 1 1 1 1 1 1 1 2 1 1 1 1 2 2 2 2 2 3 3 4 4 4 4 4 4 3 4 4 4 3 3 3 4
2 2 1 1 1 1 1 1 1 1 1 2 2 1 1 1 1 1 1 2 2 2 3 3 4 4 3 2 2 4 6 3 3 4 4 3 3 4
1 1 1 1 1 1 1 1 1 1 2 1 1 1 1 1 1 1 1 2 2 2 3 3 4 5 2 2 2 3 5 7 5 3 3 3 3 3
1 1 1 1 1 1 1 1 1 1 1 1 1 1 1 1 1 1 1 1 1 2 2 3 4 4 3 3 3 4 5 6 8 8 6 3 1 1
1 1 1 1 1 1 1 1 1 1 1 1 1 1 1 1 1 1 1 1 1 2 2 3 4 4 3 3 2 3 4 5 5 5 5 8 6 4
Wind_Direction
241 240 245 247 243 240 235 229 236 270 281 265 270 267 322 334 322 327 318 307 310 308 313 319 320 318 316 319 318 313 310 313 309 308 307 306 307 299
248 245 253 255 250 240 231 235 232 244 267 272 271 286 311 326 317 323 309 304 302 314 321 323 329 330 326 325 325 319 316 316 311 309 308 304 309 301
265 254 260 262 255 247 238 233 232 233 253 277 272 280 263 294 321 328 321 318 322 322 326 332 335 336 328 327 329 330 327 324 317 309 309 307 314 310
264 259 270 269 255 238 232 239 239 231 229 258 282 283 283 285 310 327 344 340 339 328 333 337 337 337 336 336 339 342 336 334 324 314 312 313 317 317
250 249 265 252 252 235 231 239 242 243 222 221 260 286 314 350 359 351 351 353 350 351 350 347 346 346 348 347 350 354 350 347 339 328 321 316 319 316
247 248 252 240 236 225 234 228 234 228 170 176 228 340 3 15 14 358 352 347 340 350 353 351 352 353 354 355 357 1 2 355 346 336 325 321 325 322
251 266 271 267 271 255 256 239 234 208 166 161 299 356 6 13 347 350 338 335 337 348 351 344 346 351 350 352 359 3 1 354 348 345 332 327 330 329
242 278 286 276 306 333 333 353 342 313 197 184 266 276 295 325 341 341 335 340 331 349 352 333 341 333 338 348 352 356 359 356 353 350 343 337 336 333
223 246 282 286 312 283 350 15 5 348 328 218 204 239 250 251 242 315 317 323 300 305 336 320 333 325 329 341 345 349 355 356 354 351 348 342 344 340
220 218 243 257 225 171 122 56 356 341 343 10 212 236 233 168 168 215 282 342 332 330 340 316 323 319 320 334 346 353 356 356 354 353 351 350 346 339
235 229 222 224 216 154 133 112 6 13 23 30 27 30 33 40 59 87 67 23 344 328 342 342 319 324 314 317 346 357 360 360 358 357 356 357 350 346
221 239 255 242 194 147 144 148 175 22 41 34 31 27 27 29 30 56 160 123 339 313 324 344 325 341 333 317 330 350 359 358 359 360 359 1 0 4
215 238 243 224 143 115 125 165 164 82 78 66 42 27 22 25 20 18 14 331 298 285 287 324 314 328 317 318 327 335 350 352 357 359 1 4 6 8
215 227 223 180 140 118 124 94 81 76 79 73 46 23 10 13 12 14 21 24 1 297 292 310 303 312 327 325 317 331 338 352 1 358 0 1 9 11
195 200 155 124 117 116 99 84 83 87 86 68 36 2 350 11 27 26 33 37 28 17 10 356 337 325 320 302 307 320 333 342 4 5 0 4 5 13
102 96 96 100 98 88 75 67 65 92 101 87 34 3 23 40 38 20 18 22 25 12 11 15 3 350 345 331 316 320 338 340 346 354 356 359 8 17
117 101 94 100 97 85 81 74 79 85 82 80 79 46 52 49 28 15 18 18 22 3 1 2 10 19 9 334 343 350 351 346 338 342 354 3 3 10
117 116 115 116 140 150 144 114 104 103 105 102 83 73 71 58 34 20 22 31 32 14 2 353 354 359 10 22 10 352 355 344 338 343 349 2 354 355
94 105 115 122 121 124 135 137 126 91 101 109 95 81 72 65 51 36 32 33 26 8 353 349 355 7 7 355 348 4 352 337 342 348 349 346 332 329
87 99 102 99 101 113 117 111 105 92 89 93 94 88 77 78 61 38 31 28 14 3 356 357 2 358 344 321 315 327 342 338 340 342 339 334 322 324
89 94 101 104 102 105 104 98 103 110 108 104 107 106 95 71 66 43 30 17 18 14 1 349 338 340 338 1 3 341 341 351 347 331 332 339 345 355
112 101 94 125 130 123 114 109 101 111 123 122 117 112 115 106 105 93 52 16 3 3 353 342 343 354 5 12 2 342 341 348 1 9 13 10 352 357
131 122 119 130 142 134 130 131 135 150 149 139 137 133 135 101 73 96 80 31 16 12 6 356 358 6 6 1 360 348 345 347 354 3 7 16 19 2
Height
1450 1450 1450 1450 1450 1450 1450 1450 1450 1447 1445 1445 1446 1446 1446 1447 1447 1446 1446 1445 1445 1445 1444 1443 1442 1441 1440 1440 1439 1439 1438 1437 1437 1437 1437 1436 1436 1435
1446 1445 1445 1445 1445 1445 1445 1446 1446 1445 1443 1441 1441 1442 1442 1443 1443 1443 1442 1442 1441 1440 1440 1439 1438 1437 1436 1435 1435 1434 1434 1433 1432 1432 1432 1432 1431 1431
1441 1441 1441 1440 1440 1440 1441 1441 1441 1441 1440 1438 1439 1439 1439 1439 1439 1439 1438 1438 1437 1437 1436 1435 1434 1433 1432 1431 1430 1429 1429 1428 1428 1428 1427 1427 1427 1427
1437 1437 1437 1436 1436 1436 1437 1437 1437 1437 1437 1435 1435 1435 1435 1436 1435 1435 1434 1434 1434 1433 1432 1431 1430 1429 1428 1426 1425 1424 1424 1423 1423 1423 1423 1422 1422 1422
1434 1434 1433 1433 1433 1433 1433 1433 1433 1433 1433 1432 1432 1432 1432 1432 1432 1432 1432 1431 1431 1430 1429 1428 1427 1425 1424 1422 1421 1420 1420 1419 1419 1418 1418 1418 1418 1418
1431 1431 1430 1430 1430 1430 1430 1430 1430 1430 1430 1429 1429 1429 1430 1430 1430 1429 1428 1428 1427 1427 1426 1425 1423 1422 1420 1419 1418 1417 1416 1415 1415 1414 1414 1414 1414 1414
1427 1428 1428 1428 1428 1428 1428 1428 1428 1428 1427 1427 1427 1427 1427 1427 1427 1427 1426 1425 1425 1424 1422 1421 1420 1418 1417 1416 1415 1414 1413 1412 1411 1410 1410 1410 1410 1410
1424 1425 1425 1425 1425 1425 1426 1426 1426 1426 1425 1425 1425 1424 1424 1425 1425 1425 1424 1423 1421 1422 1420 1418 1418 1416 1415 1414 1412 1411 1410 1409 1408 1407 1406 1406 1406 1406
1422 1422 1422 1422 1422 1422 1422 1423 1423 1424 1424 1424 1422 1422 1422 1423 1423 1423 1423 1422 1421 1420 1418 1415 1415 1413 1413 1411 1410 1409 1407 1406 1405 1404 1403 1403 1403 1403
1419 1420 1420 1419 1420 1420 1420 1421 1421 1421 1421 1421 1421 1420 1421 1421 1422 1421 1421 1420 1419 1418 1417 1414 1412 1411 1410 1408 1407 1406 1405 1404 1403 1401 1400 1400 1400 1400
1417 1417 1417 1417 1417 1418 1418 1418 1418 1419 1419 1419 1419 1419 1419 1420 1419 1419 1418 1417 1416 1415 1415 1413 1410 1408 1407 1406 1405 1404 1403 1401 1400 1399 1398 1397 1397 1397
1413 1414 1415 1415 1415 1416 1416 1416 1416 1416 1416 1417 1417 1417 1417 1417 1417 1417 1416 1415 1414 1413 1412 1411 1409 1407 1405 1404 1403 1402 1400 1399 1398 1397 1395 1395 1394 1394
1410 1411 1412 1413 1413 1414 1414 1415 1415 1415 1415 1415 1415 1415 1415 1415 1415 1415 1415 1415 1414 1412 1412 1410 1409 1407 1406 1403 1401 1400 1399 1397 1396 1395 1393 1393 1392 1391
1408 1409 1410 1410 1411 1412 1412 1413 1413 1413 1413 1413 1413 1413 1413 1413 1413 1413 1413 1413 1413 1412 1410 1409 1408 1406 1404 1402 1400 1398 1397 1396 1394 1393 1392 1391 1390 1390
1407 1407 1408 1409 1410 1410 1411 1411 1412 1412 1412 1412 1412 1412 1412 1412 1412 1412 1411 1411 1411 1410 1408 1407 1407 1406 1404 1402 1399 1397 1395 1394 1393 1392 1391 1390 1389 1388
1405 1406 1407 1407 1408 1408 1409 1410 1410 1410 1411 1411 1411 1411 1411 1411 1411 1410 1410 1409 1409 1408 1408 1407 1405 1404 1403 1401 1399 1397 1396 1394 1393 1392 1390 1389 1389 1389
1403 1404 1404 1405 1406 1406 1407 1408 1409 1409 1409 1409 1410 1410 1410 1410 1410 1410 1409 1409 1408 1407 1406 1406 1405 1403 1402 1401 1398 1397 1395 1394 1393 1392 1390 1389 1388 1388
1402 1402 1403 1403 1404 1405 1406 1406 1407 1408 1408 1408 1408 1408 1408 1408 1409 1409 1409 1408 1408 1407 1406 1404 1403 1401 1400 1399 1399 1397 1395 1394 1393 1392 1391 1389 1388 1388
1401 1401 1402 1403 1403 1404 1405 1405 1406 1406 1407 1407 1407 1408 1408 1408 1408 1408 1408 1408 1407 1407 1406 1405 1404 1402 1400 1399 1398 1398 1397 1394 1393 1392 1391 1390 1389 1388
1400 1400 1401 1402 1402 1403 1404 1404 1405 1405 1406 1406 1407 1407 1407 1408 1408 1408 1408 1407 1407 1406 1405 1405 1404 1403 1402 1401 1399 1397 1397 1396 1393 1392 1391 1390 1389 1389
1399 1400 1400 1401 1402 1402 1403 1404 1404 1405 1405 1406 1406 1407 1407 1407 1407 1407 1407 1407 1406 1406 1405 1405 1404 1404 1402 1401 1399 1397 1397 1396 1395 1393 1391 1390 1389 1388
1398 1399 1400 1401 1401 1402 1403 1403 1404 1404 1405 1405 1406 1406 1407 1407 1407 1407 1407 1407 1406 1406 1406 1405 1404 1403 1402 1401 1399 1398 1397 1396 1395 1394 1393 1392 1390 1388
1397 1398 1399 1400 1400 1401 1402 1402 1403 1404 1404 1405 1405 1406 1406 1407 1407 1407 1407 1407 1406 1406 1405 1404 1404 1403 1402 1401 1400 1399 1397 1396 1395 1394 1393 1393 1392 1391